EN

Hourly Weather Laczki

Today, 24 July, Saturday

Time Temperature Precipitation Wind Pressure Humidity
00:00 +20°C° 0 mm 1 mps 736 mmHg 68%
01:00 +20°C° 0 mm 1 mps 736 mmHg 69%
02:00 +19°C° 0 mm 1 mps 736 mmHg 70%
03:00 +19°C° 0 mm 1 mps 736 mmHg 70%
04:00 +19°C° 0 mm 1 mps 736 mmHg 71%
05:00 +20°C° 0 mm 1 mps 736 mmHg 70%
06:00 +20°C° 0 mm 1 mps 736 mmHg 69%
07:00 +20°C° 0 mm 2 mps 736 mmHg 69%
08:00 +21°C° 0.1 mm 2 mps 736 mmHg 64%
09:00 +24°C° 0.1 mm 2 mps 736 mmHg 60%
10:00 +25°C° 0.1 mm 3 mps 736 mmHg 55%
11:00 +25°C° 0 mm 3 mps 736 mmHg 53%
12:00 +26°C° 0 mm 3 mps 736 mmHg 51%
13:00 +26°C° 0 mm 2 mps 736 mmHg 49%
14:00 +26°C° 0 mm 3 mps 735 mmHg 51%
15:00 +26°C° 0 mm 3 mps 735 mmHg 53%
16:00 +26°C° 0 mm 3 mps 735 mmHg 55%
17:00 +25°C° 0 mm 3 mps 735 mmHg 59%
18:00 +24°C° 0 mm 3 mps 735 mmHg 64%
19:00 +22°C° 0 mm 3 mps 735 mmHg 68%
20:00 +21°C° 0 mm 3 mps 735 mmHg 71%
21:00 +20°C° 0 mm 3 mps 735 mmHg 73%
22:00 +19°C° 0 mm 3 mps 735 mmHg 75%
23:00 +19°C° 0 mm 3 mps 735 mmHg 75%

Tomorrow, 25 July, Sunday

Time Temperature Precipitation Wind Pressure Humidity
00:00 +18°C° 0 mm 3 mps 735 mmHg 74%
01:00 +18°C° 0 mm 3 mps 734 mmHg 74%
02:00 +18°C° 0 mm 3 mps 734 mmHg 74%
03:00 +18°C° 0 mm 2 mps 734 mmHg 74%
04:00 +18°C° 0 mm 2 mps 734 mmHg 74%
05:00 +19°C° 0 mm 2 mps 734 mmHg 70%
06:00 +21°C° 0 mm 2 mps 735 mmHg 66%
07:00 +23°C° 0 mm 2 mps 735 mmHg 62%
08:00 +25°C° 0 mm 2 mps 735 mmHg 55%
09:00 +27°C° 0 mm 3 mps 735 mmHg 48%
10:00 +29°C° 0 mm 3 mps 735 mmHg 41%
11:00 +30°C° 0 mm 3 mps 735 mmHg 38%
12:00 +30°C° 0 mm 3 mps 735 mmHg 36%
13:00 +31°C° 0 mm 3 mps 734 mmHg 33%
14:00 +30°C° 0 mm 3 mps 734 mmHg 38%
15:00 +29°C° 0 mm 3 mps 734 mmHg 43%
16:00 +27°C° 0 mm 2 mps 734 mmHg 48%
17:00 +26°C° 0 mm 2 mps 734 mmHg 52%
18:00 +25°C° 0 mm 3 mps 734 mmHg 55%
19:00 +24°C° 0 mm 3 mps 733 mmHg 58%
20:00 +23°C° 0 mm 4 mps 733 mmHg 60%
21:00 +22°C° 0 mm 4 mps 733 mmHg 62%
22:00 +22°C° 0 mm 5 mps 733 mmHg 64%
23:00 +21°C° 0.3 mm 5 mps 733 mmHg 67%

Day after tomorrow, 26 July, Monday

Time Temperature Precipitation Wind Pressure Humidity
00:00 +21°C° 0.3 mm 4 mps 733 mmHg 71%
01:00 +20°C° 0.3 mm 4 mps 732 mmHg 74%
02:00 +20°C° 0.3 mm 4 mps 732 mmHg 78%
03:00 +19°C° 0.3 mm 3 mps 732 mmHg 82%
04:00 +18°C° 0.3 mm 2 mps 732 mmHg 86%
05:00 +19°C° 0.1 mm 2 mps 733 mmHg 84%
06:00 +20°C° 0.1 mm 2 mps 733 mmHg 81%
07:00 +21°C° 0.1 mm 2 mps 733 mmHg 78%
08:00 +24°C° 0 mm 2 mps 733 mmHg 72%
09:00 +26°C° 0 mm 2 mps 734 mmHg 65%
10:00 +27°C° 0 mm 3 mps 734 mmHg 59%
11:00 +28°C° 0.7 mm 3 mps 734 mmHg 59%
12:00 +28°C° 0.7 mm 3 mps 734 mmHg 59%
13:00 +28°C° 0.7 mm 3 mps 734 mmHg 59%
14:00 +29°C° 0.3 mm 3 mps 734 mmHg 56%
15:00 +29°C° 0.3 mm 3 mps 734 mmHg 53%
16:00 +30°C° 0.3 mm 3 mps 734 mmHg 49%
17:00 +29°C° 0 mm 2 mps 734 mmHg 54%
18:00 +27°C° 0 mm 2 mps 734 mmHg 60%
19:00 +26°C° 0 mm 2 mps 733 mmHg 65%
20:00 +25°C° 0.1 mm 1 mps 734 mmHg 69%
21:00 +23°C° 0.1 mm 1 mps 734 mmHg 73%
22:00 +22°C° 0.1 mm 1 mps 734 mmHg 77%
23:00 +22°C° 0.6 mm 1 mps 734 mmHg 80%

27 July, Tuesday

Time Temperature Precipitation Wind Pressure Humidity
00:00 +21°C° 0.6 mm 1 mps 734 mmHg 84%
01:00 +20°C° 0.6 mm 2 mps 734 mmHg 88%
02:00 +19°C° 0.1 mm 2 mps 734 mmHg 89%
03:00 +19°C° 0.1 mm 2 mps 734 mmHg 89%
04:00 +20°C° 0.1 mm 1 mps 734 mmHg 90%
05:00 +21°C° 0 mm 1 mps 734 mmHg 87%
06:00 +21°C° 0 mm 2 mps 735 mmHg 83%
07:00 +23°C° 0 mm 2 mps 735 mmHg 80%
08:00 +24°C° 0 mm 2 mps 735 mmHg 74%
09:00 +26°C° 0 mm 2 mps 735 mmHg 68%
10:00 +27°C° 0 mm 2 mps 735 mmHg 62%
11:00 +28°C° 0 mm 2 mps 735 mmHg 58%
12:00 +29°C° 0 mm 1 mps 735 mmHg 54%
13:00 +30°C° 0 mm 1 mps 735 mmHg 50%
14:00 +30°C° 0 mm 1 mps 734 mmHg 52%
15:00 +29°C° 0 mm 1 mps 734 mmHg 54%
16:00 +29°C° 0 mm 1 mps 734 mmHg 56%
17:00 +27°C° 1.2 mm 2 mps 734 mmHg 65%
18:00 +25°C° 1.2 mm 3 mps 733 mmHg 73%
19:00 +22°C° 1.2 mm 4 mps 733 mmHg 82%
20:00 +21°C° 3.1 mm 3 mps 733 mmHg 86%
21:00 +20°C° 3.1 mm 2 mps 733 mmHg 90%
22:00 +20°C° 3.1 mm 1 mps 733 mmHg 93%
23:00 +20°C° 0 mm 1 mps 734 mmHg 94%

28 July, Wednesday

Time Temperature Precipitation Wind Pressure Humidity
00:00 +20°C° 0 mm 1 mps 734 mmHg 95%
01:00 +18°C° 0 mm 2 mps 734 mmHg 96%
02:00 +18°C° 0 mm 2 mps 734 mmHg 96%
03:00 +18°C° 0 mm 2 mps 734 mmHg 96%
04:00 +17°C° 0 mm 2 mps 734 mmHg 96%
05:00 +18°C° 0 mm 3 mps 734 mmHg 92%
06:00 +19°C° 0 mm 3 mps 734 mmHg 88%
07:00 +20°C° 0 mm 4 mps 735 mmHg 85%
08:00 +21°C° 0.3 mm 4 mps 735 mmHg 82%
09:00 +21°C° 0.3 mm 4 mps 735 mmHg 78%
10:00 +22°C° 0.3 mm 4 mps 735 mmHg 75%
11:00 +23°C° 0.3 mm 4 mps 735 mmHg 72%
12:00 +23°C° 0.3 mm 5 mps 735 mmHg 69%
13:00 +25°C° 0.3 mm 5 mps 735 mmHg 66%
14:00 +25°C° 0.1 mm 4 mps 735 mmHg 61%
15:00 +26°C° 0.1 mm 4 mps 735 mmHg 57%
16:00 +27°C° 0.1 mm 4 mps 735 mmHg 53%
17:00 +25°C° 0 mm 3 mps 735 mmHg 59%
18:00 +24°C° 0 mm 3 mps 735 mmHg 64%
19:00 +22°C° 0 mm 3 mps 736 mmHg 69%
20:00 +21°C° 0 mm 2 mps 736 mmHg 71%
21:00 +20°C° 0 mm 2 mps 736 mmHg 72%
22:00 +19°C° 0 mm 2 mps 736 mmHg 73%
23:00 +19°C° 0 mm 2 mps 736 mmHg 73%

29 July, Thursday

Time Temperature Precipitation Wind Pressure Humidity
00:00 +19°C° 0 mm 2 mps 736 mmHg 73%
01:00 +19°C° 0 mm 2 mps 736 mmHg 72%
02:00 +18°C° 0 mm 2 mps 736 mmHg 75%
03:00 +18°C° 0 mm 2 mps 736 mmHg 78%
04:00 +17°C° 0 mm 2 mps 736 mmHg 81%
05:00 +19°C° 0 mm 2 mps 737 mmHg 76%
06:00 +20°C° 0 mm 2 mps 737 mmHg 71%
07:00 +23°C° 0 mm 2 mps 737 mmHg 65%
08:00 +24°C° 0 mm 2 mps 737 mmHg 59%
09:00 +26°C° 0 mm 2 mps 737 mmHg 53%
10:00 +27°C° 0 mm 2 mps 737 mmHg 47%
11:00 +28°C° 0 mm 2 mps 737 mmHg 45%
12:00 +29°C° 0 mm 2 mps 737 mmHg 42%
13:00 +29°C° 0 mm 2 mps 737 mmHg 40%
14:00 +29°C° 0 mm 2 mps 736 mmHg 42%
15:00 +29°C° 0 mm 1 mps 736 mmHg 45%
16:00 +29°C° 0 mm 1 mps 736 mmHg 47%
17:00 +28°C° 0 mm 1 mps 736 mmHg 52%
18:00 +26°C° 0 mm 2 mps 735 mmHg 56%
19:00 +25°C° 0 mm 2 mps 735 mmHg 61%
20:00 +24°C° 0 mm 2 mps 735 mmHg 62%
21:00 +24°C° 0 mm 2 mps 735 mmHg 63%
22:00 +22°C° 0 mm 3 mps 735 mmHg 65%
23:00 +21°C° 0 mm 3 mps 735 mmHg 67%
Show more